GFSNIL_sfc_thetae_336.txt.gz
Theta_e
306 308 307 308 308 308 307 306 306 306 306 306 307 306 304 304 304 303 302 302 302 302
308 309 308 308 309 308 308 307 307 306 306 305 305 305 305 302 304 303 302 302 302 300
309 309 309 309 308 307 307 307 306 306 306 306 306 306 306 305 304 303 302 302 301 299
308 309 308 308 308 307 307 307 307 306 306 305 306 306 306 305 304 303 302 301 300 299
308 308 308 307 308 307 306 307 307 306 305 305 306 306 306 305 305 304 302 301 300 299
307 308 308 308 307 307 307 306 306 306 305 305 305 305 306 305 305 305 304 302 300 299
305 307 308 308 307 307 306 306 306 306 306 305 305 305 305 305 305 305 304 303 302 299
304 305 306 307 307 306 306 306 306 305 305 305 305 304 304 305 304 304 303 301 299 299
303 303 304 305 305 305 305 305 305 304 304 303 303 294 299 302 304 303 302 301 299 298
302 302 302 303 303 304 304 304 304 303 303 303 303 297 298 297 304 303 303 302 298 295
300 301 300 301 301 302 303 303 303 303 303 303 303 297 297 295 303 303 302 302 299 299
298 298 296 299 299 301 301 301 302 302 302 302 302 296 297 297 300 296 296 298 300 300
294 296 297 297 297 295 299 298 295 293 301 297 302 296 296 297 299 295 294 292 294 290
293 294 296 296 292 292 296 292 292 292 292 295 298 297 296 296 296 297 294 294 292 293

GFSNIL_sfc_thetae_339.txt.gz
Theta_e
307 308 309 309 309 308 307 306 307 307 307 307 307 306 307 306 306 307 305 303 304 302
308 309 308 309 310 308 308 307 307 307 306 307 307 306 306 306 305 305 306 305 304 303
309 309 309 309 309 308 308 307 306 306 306 307 307 306 306 306 306 304 304 304 302 302
308 309 309 309 309 308 308 307 306 306 306 306 306 306 306 306 304 304 303 304 301 300
309 308 308 308 308 308 307 307 307 306 305 306 306 306 306 305 305 304 303 302 301 300
308 308 307 307 308 308 307 307 307 306 306 305 306 306 306 306 305 305 304 303 301 300
306 308 308 308 307 307 307 307 306 306 306 306 306 306 305 305 305 305 305 304 303 301
306 308 308 307 307 307 307 306 306 306 306 305 305 305 305 305 305 305 305 303 301 302
304 305 306 306 306 306 305 305 306 305 305 304 304 294 299 303 304 304 303 302 300 299
303 303 304 305 305 304 304 305 304 304 304 304 304 298 298 297 305 304 304 303 300 297
301 302 302 303 303 304 304 303 304 303 304 304 304 297 297 295 304 304 303 303 301 300
301 300 298 300 301 303 303 303 303 303 303 303 302 296 296 297 301 298 299 301 301 301
299 301 299 300 300 298 301 301 298 295 302 298 303 296 296 298 300 296 295 294 296 290
296 297 300 300 296 295 297 293 293 293 294 299 300 299 296 296 299 298 295 295 293 294

GFSNIL_sfc_thetae_342.txt.gz
Theta_e
313 313 312 309 311 311 309 309 309 308 309 308 309 310 312 311 311 310 306 307 307 304
313 313 312 311 311 312 312 311 311 309 308 308 308 308 310 311 310 311 308 306 305 306
312 313 313 312 311 311 311 309 309 309 308 309 307 307 308 311 311 311 310 308 305 306
311 312 312 312 312 310 310 309 309 308 307 309 307 306 307 310 309 309 309 308 306 309
309 311 312 311 311 311 309 309 309 309 308 308 307 307 307 307 307 307 307 308 304 302
307 309 311 310 310 310 309 309 309 308 308 308 308 307 307 307 307 306 308 306 306 301
309 310 310 310 309 309 309 308 308 308 308 309 309 309 309 308 307 306 306 306 305 304
309 309 309 309 308 308 308 308 308 308 308 309 309 308 309 309 308 307 307 308 307 305
308 308 308 308 307 307 307 307 307 307 308 307 306 295 300 305 307 307 306 307 307 305
307 306 307 307 307 306 306 306 306 306 306 306 307 298 298 297 307 307 309 308 304 301
305 305 305 305 305 305 305 305 305 305 306 305 306 297 297 295 306 305 306 306 304 304
304 303 302 303 303 305 304 304 304 304 305 305 305 296 296 297 303 302 302 304 304 304
303 303 302 303 302 302 304 302 301 298 303 299 305 296 296 298 303 300 299 299 302 290
298 299 302 302 299 296 299 294 294 293 296 301 301 302 296 296 302 300 298 297 296 298

GFSNIL_sfc_thetae_345.txt.gz
Theta_e
315 314 313 310 310 310 310 311 312 311 311 312 310 312 313 311 311 311 310 310 309 309
314 314 313 310 310 311 311 310 312 311 311 310 310 311 312 312 311 310 309 310 306 305
314 314 313 310 310 311 312 312 311 310 312 310 310 310 312 312 313 310 308 308 306 304
313 312 312 310 310 310 311 311 311 310 309 309 308 309 310 312 311 312 307 307 306 305
311 311 310 309 310 310 311 311 310 310 308 309 307 308 308 310 310 310 310 308 306 308
309 309 309 310 311 311 310 309 309 308 308 308 308 307 308 309 309 309 309 310 307 305
307 308 309 310 311 311 310 308 308 309 308 308 308 308 308 308 309 309 309 309 309 307
307 308 310 310 311 311 310 308 308 308 308 309 308 307 308 308 307 308 307 307 305 305
308 308 309 310 309 309 308 308 307 307 307 307 307 295 300 306 309 308 306 305 306 305
307 307 308 308 307 306 306 307 306 306 307 306 307 299 299 297 309 308 307 307 306 304
306 306 307 307 306 306 306 305 305 306 306 306 306 298 298 296 307 308 308 309 307 306
305 306 305 305 305 305 305 305 305 305 305 305 305 297 296 297 303 303 304 307 308 306
303 304 304 304 304 303 305 303 303 300 305 299 305 297 296 297 302 301 299 299 302 291
299 300 302 303 300 298 300 295 296 294 297 301 301 303 296 296 301 301 299 297 294 298

GFSNIL_sfc_thetae_348.txt.gz
Theta_e
309 309 307 308 309 309 309 309 308 307 310 311 307 308 309 306 306 307 307 308 308 306
309 309 308 307 309 310 310 310 310 310 309 310 306 308 310 306 306 309 308 307 306 304
310 310 308 308 308 309 309 310 310 309 309 306 306 308 309 307 307 307 307 306 304 304
309 309 309 307 308 310 309 309 309 308 309 308 305 308 306 307 307 305 304 303 302 303
308 308 308 308 308 310 310 310 310 308 309 308 306 305 305 306 306 305 303 303 303 302
308 307 309 308 309 309 309 309 309 307 307 307 307 305 305 306 306 306 305 305 304 302
308 308 308 308 309 309 309 308 308 308 307 308 307 307 306 307 305 304 305 305 305 302
307 308 308 307 308 309 308 307 307 307 307 307 307 307 307 307 305 304 303 304 302 301
305 306 306 306 307 308 306 305 307 306 306 306 306 295 300 304 306 305 303 302 301 301
305 305 306 307 306 306 306 306 305 306 306 306 306 298 299 298 307 306 305 304 303 302
304 304 305 305 305 305 305 305 305 305 305 305 306 298 298 296 306 307 306 306 305 304
302 302 303 303 303 304 304 304 305 305 305 305 305 298 297 298 303 304 303 305 306 305
301 302 303 303 303 303 304 303 303 301 305 299 305 297 297 298 302 301 301 300 302 291
297 299 302 302 300 299 301 296 297 295 298 302 302 302 296 296 302 301 300 299 295 301